Simultaneous Nadir Overpasses (SNOs) Predictions

Prediction of SNOs between METOP-C and LANDSAT-8 Satellite Orbit:

Table of predicted SNOs for the next 14.0 days since TLE Epoch: 5/6/2023
Index Date (METOP-C) Time (METOP-C) Lat,Lon (METOP-C) SZA (METOP-C ) Date (LANDSAT-8) Time (LANDSAT-8) Lat,Lon (LANDSAT-8) SZA (LANDSAT-8 ) Distance(km) Time Diff (sec)
1 05/06/2023 04:31:51 81.13, 151.44 66.83 05/06/2023 04:31:36 81.13, 151.47 66.83 0.78 15
2 05/08/2023 23:15:32 -81.11, 49.92 114.01 05/08/2023 23:16:23 -81.11, 49.89 113.99 0.53 51
3 05/09/2023 00:06:12 81.13,-142.11 66.07 05/09/2023 00:05:48 81.14,-142.05 66.07 1.23 24
4 05/11/2023 18:49:53 -81.11, 116.31 114.74 05/11/2023 18:50:35 -81.10, 116.16 114.75 2.71 42
5 05/11/2023 19:40:33 81.13, -75.75 65.34 05/11/2023 19:40:00 81.12, -75.80 65.31 1.02 33
6 05/14/2023 14:24:12 -81.12,-177.02 115.40 05/14/2023 14:24:44 -81.12,-177.08 115.39 0.98 32
7 05/14/2023 15:14:52 81.14, -9.12 64.67 05/14/2023 15:14:09 81.14, -9.06 64.66 1.19 43
8 05/17/2023 09:58:32 -81.12,-110.44 116.03 05/17/2023 09:58:54 -81.12,-110.55 116.03 1.89 22



Historial Predications of SNOs between METOP-C and LANDSAT-8
